Regional Weather Roundup
Issued by NWS

Home | Current Version | Previous Version | Text Only | Print | Product List | Glossary On
Versions: 1 2 3 4 5 6 7 8 9 10 11 12 13 14 15 16 17 18 19 20 21 22 23 24 25 26 27 28 29 30 31 32 33 34 35 36 37 38 39 40 41 42 43 44 45 46 47 48 49 50
399
ASUS43 KDMX 280703
RWRIA

WEATHER ROUNDUP FOR IOWA
NATIONAL WEATHER SERVICE DES MOINES IA
200 AM CDT WED SEP 28 2016

NOTE: "FAIR" INDICATES FEW OR NO CLOUDS BELOW 12,000 FEET WITH NO
SIGNIFICANT WEATHER AND/OR OBSTRUCTIONS TO VISIBILITY.

* - THESE STATIONS ARE NOT NWS STATIONS...THUS NOT UNDER NWS
QUALITY CONTROL.  THEY ALSO DO NOT REPORT WEATHER SUCH
AS PRECIPITATION OR FOG.

IAZ001>003-012>014-020>022-031>034-043>046-280800-
   NORTHWEST IOWA

CITY           SKY/WX    TMP DP  RH WIND       PRES   REMARKS
CARROLL *      CLEAR     52  41  66 N8        29.92R
CHEROKEE *     CLEAR     47  41  78 NE3       29.96R
DENISON *      CLEAR     50  41  71 N3        29.91R
LE MARS *      CLEAR     46  41  81 N3        29.97R
ORANGE CITY *  CLEAR     48  39  71 N5        29.97R
SHELDON *      CLEAR     45  43  93 N6        29.96R
SIOUX CITY     CLEAR     51  40  65 N7        29.96R
SPENCER        CLOUDY    52  44  74 N15       29.96R
STORM LAKE *   CLEAR     52  43  71 NE12      29.95R
$$

IAZ055>058-069>071-079>083-090>094-280800-
   SOUTHWEST IOWA

CITY           SKY/WX    TMP DP  RH WIND       PRES   REMARKS
ATLANTIC *     CLEAR     52  45  76 N6        29.91R
AUDUBON *      CLEAR     46  43  87 CALM      29.92R
CLARINDA *       N/A     54  50  87 MISG      29.90S
COUNCIL BLFS * CLEAR     55  48  76 N7        29.92R
CRESTON *      CLEAR     52  45  76 NW7       29.90R
HARLAN  *      CLEAR     52  43  71 N6        29.95R
LAMONI         CLEAR     59  46  62 NW10      29.87R
RED OAK *      CLEAR     57  48  72 N3        29.90R
SHENANDOAH *   CLEAR     50  48  93 CALM      29.90R
$$

IAZ047>049-059>061-072>074-084-280800-
   CENTRAL IOWA

CITY           SKY/WX    TMP DP  RH WIND       PRES   REMARKS
AMES           CLOUDY    55  45  68 N12       29.89R
ANKENY *         N/A    N/A N/A N/A MISG        N/A
BOONE *        CLOUDY    54  43  66 N9        29.89R
CHARITON *       N/A     54  46  76 N6        29.85R
DES MOINES     MOCLDY    59  40  49 N7        29.88R
GRINNELL*      CLOUDY    56  42  59 N7        29.87R
KNOXVILLE *    CLOUDY    59  39  47 N8        29.85R
MARSHALLTOWN   CLOUDY    53  45  74 N13       29.88R
NEWTON *       CLOUDY    55  41  58 N9        29.86R
PELLA *        PTCLDY    56  41  58 N5        29.87R
PERRY *        CLOUDY    54  41  61 N6        29.90R
$$

IAZ004>006-015-016-023>025-035-036-280800-
   NORTH CENTRAL IOWA

CITY           SKY/WX    TMP DP  RH WIND       PRES   REMARKS
ALGONA *       MOCLDY    50  43  76 N9G16     29.94R
CLARION *      CLOUDY    52  45  76 N10       29.92R
ESTHERVILLE    CLOUDY    49  45  86 N12       29.95R
FORT DODGE *   MOCLDY    52  39  62 N9        29.93R
MASON CITY     MOCLDY    49  43  80 N12       29.92R
FOREST CITY *  CLOUDY    50  43  76 N12       29.92R
WEBSTER CITY * CLOUDY    54  45  71 N12G18    29.89R
IOWA FALLS *   CLOUDY    53  45  74 N9        29.91R
$$

IAZ007>011-017>019-026>030-037>042-050>054-066-280800-
   NORTHEAST IOWA

CITY           SKY/WX    TMP DP  RH WIND       PRES   REMARKS
CEDAR RAPIDS   CLOUDY    54  45  71 NW9       29.83R
CHARLES CITY * CLOUDY    50  46  87 N8G15     29.89R
DECORAH *      CLOUDY    48  45  87 N9        29.85R
DUBUQUE        PTCLDY    46  44  93 N6        29.83R
MONTICELLO *   CLOUDY    52  43  71 N8        29.84R
OELWEIN *      MOCLDY    48  45  87 N8        29.87R
WATERLOO       MOCLDY    50  43  77 N15       29.88R
$$

IAZ064-065-067-068-078-280800-
   EAST CENTRAL IOWA

CITY           SKY/WX    TMP DP  RH WIND       PRES   REMARKS
DAVENPORT      CLOUDY    53  47  79 CALM      29.81F
IOWA CITY      CLOUDY    57  43  59 N5        29.84R
MUSCATINE *    CLOUDY    57  45  62 NE8       29.82R
QUAD CITIES    CLOUDY    56  47  71 E6        29.80R
$$

IAZ062-063-075>077-085>089-095>099-280800-
   SOUTHEAST IOWA

CITY           SKY/WX    TMP DP  RH WIND       PRES   REMARKS
BURLINGTON     PTCLDY    60  44  55 N9        29.78S
FAIRFIELD *    CLOUDY    59  39  47 N10       29.82R
FORT MADISON *   N/A     57  48  72 N3        29.80R
KEOKUK *       CLOUDY    61  46  59 VRB5      29.79R
OSKALOOSA *    CLOUDY    56  41  58 N6        29.85R
OTTUMWA        CLOUDY   N/A N/A N/A N9        29.83R
WASHINGTON *     N/A    N/A N/A N/A MISG        N/A
$$

ABBREVIATIONS USED IN REMARKS
   TC - TEMPERATURES IN CELSIUS
  WCI - WIND CHILL INDEX
   HX - HEAT INDEX
  VSB - VISIBILITY
$$





USA.gov is the U.S. government's official web portal to all federal, state and local government web resources and services.